Temp
5 6 6 6 6 6 7 7 7 7 7 7 7 8 8 8 8 8 7 7 7 7 6 6 6 5 5 5 5 5 6 7 7 7 6 6 5 6 6 6 6 6 6 6 6
5 5 6 6 6 6 6 6 7 7 7 7 7 7 8 8 8 7 7 7 7 7 6 6 6 5 5 5 5 5 6 7 6 6 6 6 6 6 6 6 6 5 5 5 5
4 4 5 5 6 6 6 6 6 7 7 7 7 7 7 7 7 7 7 7 7 6 7 6 6 5 6 6 5 5 6 6 6 6 6 5 6 5 5 4 5 5 5 5 5
4 4 4 5 5 5 6 6 6 6 6 7 7 7 7 7 6 7 7 7 7 6 6 6 6 5 5 5 5 6 6 6 6 6 6 5 5 5 4 5 5 5 5 4 4
4 4 4 5 5 5 5 5 6 6 6 6 7 7 7 7 7 7 7 7 6 6 6 6 5 5 5 5 6 6 5 6 6 6 6 5 5 5 4 4 5 5 3 3 3
3 4 4 4 4 5 5 5 6 6 6 6 6 6 7 6 6 6 6 6 6 5 5 5 5 5 5 5 5 5 6 6 6 6 6 5 5 5 5 4 4 4 2 2 2
3 3 4 4 4 5 5 5 5 6 6 6 6 6 6 6 6 6 6 6 6 5 5 5 5 5 5 5 5 5 5 5 5 5 6 5 5 5 4 4 4 4 2 0 1
2 2 3 3 4 4 5 5 5 5 6 6 6 6 6 6 6 6 6 6 5 5 5 5 5 5 5 6 6 6 6 6 4 5 6 6 6 6 5 4 3 4 3 2 2
2 2 2 3 3 4 4 4 4 5 5 5 6 5 6 6 6 6 5 5 5 4 5 5 5 5 5 6 7 6 8 7 5 6 5 6 6 6 5 4 3 4 3 3 3
1 1 2 2 2 3 3 4 4 4 4 5 5 5 6 6 6 5 5 5 4 4 4 5 5 5 5 6 8 8 7 7 7 6 6 6 7 6 6 5 4 3 4 3 3
1 1 1 1 2 2 2 3 3 4 4 4 5 6 5 5 6 5 5 5 5 4 4 5 5 6 7 6 6 7 7 7 7 6 6 7 7 6 6 6 5 4 4 4 4
1 1 1 1 1 1 1 1 2 2 4 4 5 6 5 5 5 5 5 5 4 4 4 4 5 6 5 6 6 6 7 7 7 7 7 7 7 6 7 6 6 5 4 4 4
1 1 1 1 1 1 1 1 1 1 2 5 5 5 5 5 5 5 5 5 5 4 4 6 6 5 6 6 6 6 7 7 7 7 7 7 7 8 8 6 6 6 5 4 4
0 1 0 0 0 1 1 1 1 1 2 4 5 6 6 5 5 5 5 5 4 5 5 5 5 5 5 6 6 7 6 6 6 7 8 7 10 8 7 7 7 6 6 6 6
-1 0 0 -0 -0 0 1 0 0 1 2 4 4 4 6 5 5 5 5 5 5 4 5 5 5 5 6 6 6 7 6 6 6 7 7 7 8 8 8 8 8 7 6 6 6
-3 -1 -0 -0 -1 -0 -0 0 -0 0 2 3 3 4 5 5 4 5 5 4 4 4 5 6 6 5 6 6 6 6 6 6 6 6 8 8 8 9 8 8 8 7 7 7 6
-3 -3 -2 -1 -1 -2 -1 -1 -2 0 2 3 3 4 4 4 3 5 4 4 4 5 5 5 5 5 5 5 5 5 6 8 8 8 8 6 7 9 8 8 7 8 7 7 7
-6 -5 -3 -2 -3 -2 -3 -2 -1 2 2 3 3 3 3 3 3 4 4 4 4 5 6 6 6 5 5 5 6 6 7 8 7 7 9 5 8 9 7 7 7 8 8 8 7
-6 -8 -6 -2 -4 -4 -4 -4 -1 1 1 2 2 2 2 2 4 3 4 5 5 5 6 6 6 6 6 5 5 6 6 6 6 6 7 8 7 7 7 7 7 8 8 8 8
-7 -8 -7 -3 -4 -5 -5 -4 -1 0 1 2 3 3 3 3 3 4 4 4 5 5 5 5 6 5 5 5 5 6 6 6 6 6 6 8 7 9 8 7 7 7 7 7 7
-9 -9 -6 -7 -7 -6 -6 -4 -2 -1 -0 1 2 3 3 3 3 4 4 4 4 4 5 5 6 5 5 5 6 5 5 6 6 6 7 7 8 7 7 7 7 7 7 7 7
-8 -8 -8 -8 -8 -7 -7 -1 -2 -2 -2 0 1 2 3 2 3 4 4 4 5 5 5 5 5 6 5 5 6 6 6 6 6 7 5 5 6 7 7 6 6 6 6 6 7
-8 -9 -8 -8 -8 -7 -3 -1 -4 -3 -2 -1 -0 1 2 2 3 4 3 4 5 5 5 4 5 5 5 5 5 5 5 6 6 6 6 6 7 6 6 6 6 6 6 6 6
-9 -9 -8 -8 -7 -8 -3 -2 -5 -4 -3 -1 -0 0 1 2 3 4 4 3 4 5 5 5 5 5 6 6 6 5 5 5 5 6 6 6 7 7 6 6 6 6 6 6 6
-9 -9 -7 -8 -8 -6 -5 -2 -3 -5 -4 -2 -2 -0 1 1 2 3 4 4 4 5 5 5 5 5 5 6 6 6 6 6 5 6 6 6 6 6 6 6 6 6 6 6 6
-9 -8 -8 -7 -7 -6 -6 -5 -4 -5 -3 -3 -2 -1 -0 0 2 3 3 3 4 4 5 5 4 5 5 5 5 5 6 6 5 6 6 6 6 6 6 6 5 5 5 6 6
-8 -7 -8 -7 -7 -8 -6 -5 -4 -5 -4 -3 -2 -2 -1 2 1 2 1 2 2 2 4 4 4 4 5 5 5 4 5 5 5 5 5 6 6 6 5 5 5 5 5 5 5
Height
3150 3151 3151 3151 3151 3151 3153 3153 3153 3153 3153 3152 3149 3148 3146 3144 3142 3141 3140 3139 3137 3136 3134 3133 3133 3132 3134 3134 3134 3133 3135 3132 3132 3132 3132 3128 3127 3126 3125 3125 3124 3123 3123 3123 3122
3146 3146 3146 3146 3146 3147 3147 3148 3148 3148 3148 3148 3146 3145 3144 3141 3139 3139 3138 3136 3135 3134 3133 3132 3132 3133 3134 3134 3134 3134 3134 3133 3132 3131 3130 3128 3127 3125 3125 3123 3122 3121 3120 3120 3120
3141 3141 3142 3142 3141 3141 3141 3143 3143 3144 3144 3144 3143 3142 3141 3139 3137 3136 3135 3134 3133 3132 3131 3131 3132 3133 3134 3133 3134 3134 3134 3133 3132 3130 3129 3128 3126 3124 3123 3121 3120 3118 3117 3117 3117
3134 3135 3136 3137 3137 3137 3136 3137 3138 3139 3140 3140 3139 3138 3137 3136 3138 3133 3133 3132 3131 3130 3130 3130 3132 3133 3134 3135 3133 3133 3132 3131 3130 3128 3128 3127 3125 3123 3121 3121 3118 3116 3114 3113 3114
3127 3128 3130 3131 3132 3132 3132 3132 3133 3134 3135 3135 3135 3134 3134 3134 3133 3131 3131 3130 3130 3129 3129 3130 3132 3133 3134 3134 3133 3132 3132 3129 3128 3127 3127 3126 3125 3123 3121 3120 3119 3114 3110 3112 3113
3121 3122 3124 3124 3125 3125 3127 3128 3128 3129 3130 3130 3130 3130 3130 3131 3128 3128 3128 3128 3128 3127 3128 3129 3130 3132 3133 3133 3133 3132 3130 3129 3128 3127 3127 3126 3125 3123 3122 3121 3119 3115 3112 3109 3113
3116 3117 3117 3118 3118 3119 3120 3122 3124 3124 3126 3126 3125 3125 3127 3127 3125 3126 3126 3126 3126 3126 3127 3128 3129 3131 3131 3132 3131 3131 3131 3130 3129 3128 3127 3126 3126 3125 3123 3122 3121 3119 3115 3111 3113
3110 3111 3112 3112 3113 3113 3115 3117 3117 3118 3119 3120 3120 3120 3121 3122 3121 3123 3124 3124 3125 3125 3126 3126 3128 3128 3130 3130 3130 3131 3130 3128 3129 3128 3127 3126 3125 3124 3123 3123 3122 3121 3120 3118 3117
3104 3106 3107 3107 3108 3110 3110 3111 3111 3112 3113 3114 3117 3116 3116 3117 3118 3119 3121 3123 3124 3124 3124 3125 3126 3126 3128 3130 3130 3129 3126 3127 3128 3127 3127 3127 3126 3124 3123 3123 3123 3123 3122 3122 3121
3098 3099 3101 3103 3104 3106 3106 3105 3106 3106 3107 3108 3110 3114 3113 3113 3114 3116 3118 3120 3122 3123 3123 3123 3123 3124 3126 3127 3124 3125 3126 3125 3124 3128 3126 3126 3127 3124 3124 3124 3124 3124 3125 3125 3125
3091 3093 3095 3097 3100 3102 3103 3103 3104 3103 3101 3104 3104 3105 3106 3107 3111 3114 3116 3118 3120 3121 3122 3121 3123 3121 3122 3124 3125 3126 3126 3126 3126 3126 3127 3126 3125 3123 3123 3123 3123 3124 3125 3127 3127
3081 3086 3089 3091 3094 3097 3098 3098 3099 3098 3095 3097 3098 3100 3103 3103 3107 3110 3113 3116 3118 3119 3119 3120 3118 3119 3118 3120 3122 3124 3125 3125 3126 3124 3125 3123 3123 3122 3121 3123 3123 3124 3125 3126 3127
3070 3076 3081 3084 3087 3091 3093 3094 3096 3092 3090 3088 3092 3092 3096 3100 3102 3105 3110 3112 3116 3119 3117 3116 3116 3115 3117 3118 3120 3122 3123 3123 3124 3122 3122 3121 3120 3120 3120 3120 3121 3123 3124 3125 3126
3058 3065 3071 3076 3083 3085 3088 3091 3092 3089 3086 3081 3080 3082 3086 3092 3094 3099 3104 3111 3113 3115 3117 3115 3114 3114 3116 3117 3119 3119 3121 3121 3121 3121 3118 3119 3113 3117 3118 3118 3119 3120 3121 3123 3124
3045 3052 3060 3066 3071 3079 3084 3087 3089 3090 3086 3076 3070 3072 3075 3083 3088 3090 3098 3104 3109 3110 3114 3113 3111 3112 3114 3115 3116 3118 3118 3119 3119 3120 3119 3118 3117 3114 3116 3116 3115 3116 3118 3120 3122
3031 3038 3047 3055 3063 3073 3077 3081 3086 3090 3075 3069 3066 3066 3071 3075 3081 3085 3092 3099 3106 3109 3110 3110 3108 3110 3112 3111 3114 3115 3117 3117 3117 3119 3117 3116 3116 3111 3113 3114 3114 3115 3114 3116 3118
3020 3027 3031 3040 3055 3062 3068 3075 3083 3074 3067 3065 3063 3063 3066 3070 3075 3078 3083 3089 3095 3101 3104 3108 3108 3106 3108 3110 3111 3113 3115 3112 3113 3113 3113 3113 3115 3110 3111 3111 3111 3111 3111 3111 3113
3009 3014 3023 3029 3041 3050 3058 3065 3065 3054 3061 3058 3059 3059 3062 3067 3071 3074 3079 3084 3090 3093 3100 3102 3105 3104 3104 3106 3108 3109 3111 3109 3110 3110 3107 3112 3110 3108 3108 3107 3106 3105 3104 3105 3108
3001 3006 3009 3024 3035 3039 3047 3049 3042 3050 3051 3056 3058 3056 3058 3061 3068 3071 3073 3077 3082 3084 3094 3097 3099 3101 3100 3102 3106 3106 3108 3109 3109 3110 3110 3107 3108 3105 3105 3104 3103 3101 3100 3101 3104
2990 2996 3001 3010 3027 3032 3034 3031 3036 3043 3047 3050 3052 3053 3053 3055 3062 3066 3070 3071 3077 3080 3087 3093 3096 3097 3096 3098 3100 3102 3103 3106 3107 3106 3105 3101 3104 3102 3103 3103 3102 3101 3100 3099 3099
2982 2985 2989 2999 3010 3019 3018 3021 3029 3038 3041 3046 3047 3050 3050 3050 3055 3058 3063 3066 3070 3073 3081 3088 3092 3095 3093 3094 3095 3099 3099 3101 3101 3103 3100 3100 3099 3100 3101 3101 3101 3100 3099 3099 3098
2971 2973 2979 2992 2998 3004 3009 3012 3024 3030 3035 3038 3041 3045 3045 3047 3051 3053 3057 3063 3065 3070 3072 3080 3086 3089 3090 3090 3091 3093 3095 3097 3097 3098 3100 3099 3098 3096 3097 3097 3097 3098 3097 3097 3097
2957 2967 2974 2982 2987 2989 3005 3008 3018 3024 3029 3035 3037 3040 3041 3045 3048 3046 3053 3057 3061 3063 3068 3074 3078 3084 3086 3087 3087 3089 3091 3093 3094 3094 3093 3095 3094 3092 3093 3094 3094 3094 3094 3094 3094
2946 2955 2965 2969 2974 2986 2986 2995 3007 3017 3023 3030 3033 3034 3038 3041 3039 3045 3046 3051 3056 3059 3065 3068 3073 3075 3076 3078 3082 3084 3085 3087 3088 3088 3088 3088 3088 3090 3090 3091 3091 3090 3090 3089 3089
2929 2936 2943 2946 2955 2960 2972 2983 2989 3003 3015 3022 3026 3028 3032 3036 3039 3040 3040 3046 3050 3053 3059 3063 3065 3070 3073 3075 3076 3078 3079 3080 3081 3081 3082 3083 3083 3084 3085 3086 3086 3085 3085 3084 3084
2913 2925 2936 2943 2952 2958 2969 2975 2981 2992 3007 3014 3022 3026 3028 3032 3038 3038 3039 3041 3045 3049 3052 3058 3061 3065 3067 3070 3070 3071 3071 3074 3075 3076 3076 3077 3077 3079 3079 3078 3079 3079 3079 3079 3079
2903 2920 2928 2936 2943 2954 2955 2968 2977 2986 2998 3010 3018 3024 3023 3028 3032 3034 3036 3039 3041 3044 3046 3052 3056 3059 3061 3063 3064 3062 3062 3066 3068 3069 3070 3070 3071 3073 3072 3071 3071 3072 3073 3073 3074
Wind_Speed
24 25 23 23 22 21 21 19 18 17 16 15 16 16 15 16 14 11 9 8 8 6 5 1 2 3 1 2 5 1 2 1 1 3 6 11 5 4 5 7 9 11 12 12 12
25 25 24 25 24 23 22 21 20 18 16 16 16 15 15 15 13 10 8 8 7 4 2 1 3 3 1 4 3 1 3 1 1 5 6 7 6 5 5 7 9 10 11 12 12
28 27 26 26 24 23 22 23 21 20 18 17 16 16 16 15 11 9 7 6 7 3 2 5 6 4 3 4 3 2 1 3 5 7 8 7 9 6 4 3 8 9 11 13 13
29 29 30 29 28 26 24 25 23 22 21 19 17 15 15 14 5 6 7 6 5 4 4 7 8 7 6 2 2 1 3 6 8 8 7 5 5 3 7 6 7 11 13 13 12
30 30 31 31 30 30 29 28 26 24 23 21 20 16 15 14 11 10 8 5 5 6 7 10 9 8 4 3 3 3 8 8 5 5 3 2 3 5 3 5 4 14 8 10 11
29 30 31 31 31 30 32 30 29 26 24 23 20 18 15 13 11 10 9 6 7 9 9 10 11 9 7 5 3 8 4 5 5 2 1 1 4 3 0 3 5 12 6 14 11
28 28 28 30 31 31 31 31 30 27 26 25 21 18 17 13 11 12 10 7 9 12 11 10 10 9 9 4 5 7 2 3 3 1 3 1 1 1 2 3 5 4 18 22 14
28 27 27 27 28 27 26 28 29 28 26 27 23 19 17 14 12 15 13 10 10 12 10 10 9 9 9 8 5 1 4 4 1 4 4 1 5 4 4 2 4 6 9 15 11
30 28 27 26 25 23 20 20 22 25 26 26 25 21 18 17 15 19 17 14 14 14 11 10 8 8 10 6 6 3 3 2 9 7 3 1 3 5 1 1 1 8 8 10 17
33 30 28 27 25 20 16 14 16 18 21 24 25 19 19 12 19 22 20 17 17 16 14 11 10 8 10 10 11 4 2 4 3 10 8 6 4 7 3 1 4 6 8 8 11
38 34 31 29 27 22 17 16 15 17 16 19 21 18 18 16 19 24 22 19 19 18 13 13 11 13 12 13 8 6 4 3 1 5 7 10 9 10 8 4 5 10 12 11 13
43 39 35 33 30 28 24 23 23 23 26 19 19 24 18 13 21 27 27 24 23 17 14 11 13 11 14 15 12 8 7 6 6 8 9 11 9 8 8 3 4 8 12 15 17
48 43 40 37 35 32 31 28 25 25 27 36 29 28 27 27 23 31 30 27 23 18 16 11 7 11 15 13 13 9 9 6 7 7 9 9 8 9 5 11 11 11 13 17 17
51 49 44 41 37 32 29 25 20 21 19 34 33 27 29 29 31 32 31 26 23 21 16 13 12 12 12 12 13 10 8 5 5 5 5 6 4 6 8 6 12 15 19 17 16
55 53 49 44 41 34 30 22 18 14 6 8 16 23 23 35 24 34 35 32 23 21 21 15 17 15 12 12 14 10 9 5 3 5 5 5 8 7 4 6 7 14 20 20 21
55 57 53 49 42 35 31 23 18 9 10 7 9 17 21 34 28 24 39 35 23 20 24 13 17 14 12 12 12 11 11 7 5 4 8 7 6 5 8 5 5 9 11 22 23
42 55 56 52 42 37 32 24 14 19 9 11 11 13 20 26 26 25 42 41 31 25 24 20 17 12 12 9 13 11 11 10 8 7 7 5 7 13 7 9 10 11 11 18 26
39 43 57 55 44 39 33 31 20 23 30 8 13 10 14 20 24 27 33 38 33 27 21 22 18 18 15 15 12 17 15 9 4 5 4 4 6 4 7 12 10 11 15 21 21
33 38 44 58 45 44 38 34 41 33 23 29 9 7 13 19 18 25 31 40 37 33 24 23 21 13 18 16 14 14 16 12 5 4 5 9 8 11 4 6 5 8 9 12 16
31 38 38 52 47 48 40 45 39 27 23 22 34 13 12 19 23 26 27 34 34 33 27 13 17 16 14 15 19 12 14 8 8 6 7 7 8 7 6 2 4 1 2 4 9
29 39 46 38 39 47 42 51 50 32 23 24 20 23 19 17 25 28 23 17 37 33 31 22 16 9 15 17 17 17 12 9 7 6 5 5 7 8 7 7 7 6 4 4 4
38 47 39 34 42 55 53 60 45 38 27 27 25 21 17 18 18 28 32 28 14 33 40 31 19 18 15 14 18 16 15 16 14 9 8 6 14 15 14 9 9 7 7 6 4
45 43 37 33 45 55 60 63 42 26 34 30 25 24 23 17 15 21 28 33 24 18 31 33 24 20 19 19 21 17 17 16 16 17 15 8 9 4 8 13 11 12 12 11 10
52 47 35 38 42 48 67 68 44 37 27 32 28 23 25 23 19 15 24 29 29 28 21 31 29 32 25 21 15 16 20 20 20 18 18 20 17 16 16 14 12 13 14 17 16
58 46 55 55 54 60 63 68 66 49 37 28 29 30 25 17 19 19 17 24 25 25 28 32 31 30 28 23 21 23 23 20 24 23 23 20 19 18 16 16 17 18 15 17 20
61 48 54 37 50 49 54 57 56 40 39 41 34 27 25 22 17 9 14 17 20 29 28 26 26 29 27 28 25 23 25 25 25 23 22 23 23 20 18 22 22 22 19 16 15
62 61 40 52 36 40 58 59 49 49 47 30 32 26 34 36 23 18 8 19 10 8 29 31 27 24 24 24 23 20 30 25 25 25 25 24 23 19 21 25 25 23 22 22 20
Wind_Direction
268 266 266 268 269 268 270 270 273 279 289 299 308 315 318 315 315 303 298 300 302 310 321 335 119 88 89 337 322 334 207 166 52 354 350 353 351 279 247 273 275 272 267 261 261
270 269 267 265 264 266 266 266 267 272 284 293 302 308 309 311 308 295 285 291 296 292 288 188 126 98 36 357 349 174 209 166 258 311 329 345 338 291 257 267 269 275 271 262 253
266 268 267 265 263 261 263 265 268 272 279 287 295 300 302 308 301 285 272 283 284 257 213 153 136 136 62 93 146 241 172 268 285 270 290 302 322 300 279 280 280 267 255 248 252
264 264 264 265 265 263 262 264 266 270 277 282 286 290 292 300 281 261 270 271 258 221 182 151 148 138 117 136 233 278 299 280 266 283 281 297 322 289 267 263 275 279 269 246 214
264 262 261 262 264 265 263 263 265 269 272 276 279 280 283 290 275 259 255 244 230 205 178 157 160 157 164 225 303 290 306 276 274 274 239 306 324 319 296 244 288 320 223 199 198
266 264 264 261 261 262 265 264 265 267 269 269 271 275 274 286 271 240 235 221 218 197 185 170 181 185 205 259 284 315 356 347 311 206 257 149 12 314 4 167 347 49 194 167 152
265 264 262 262 260 260 261 264 266 267 269 268 266 266 269 269 260 230 214 208 209 197 187 184 196 191 216 280 295 335 97 7 344 10 228 191 31 143 281 230 336 60 95 111 118
261 263 263 262 261 260 264 267 266 265 266 267 265 260 262 261 242 217 204 201 203 201 199 195 202 205 223 229 308 308 193 306 219 130 246 3 80 19 360 326 352 111 154 156 152
257 258 260 259 258 258 258 263 269 266 264 263 263 261 262 258 232 207 200 197 196 201 206 209 212 220 233 239 237 238 231 296 163 188 259 231 30 341 353 319 50 123 135 132 133
254 254 255 256 252 247 251 260 274 271 268 263 260 258 249 248 221 204 200 199 196 208 219 227 240 235 232 219 225 170 201 203 170 190 213 262 281 284 315 141 184 182 156 163 155
248 251 251 251 252 246 259 267 271 276 281 262 255 243 235 224 220 204 203 202 202 210 216 237 231 227 220 211 208 208 232 273 264 210 245 267 271 265 271 252 188 193 184 174 175
243 245 248 248 249 250 262 271 271 271 275 277 259 244 229 219 214 206 201 204 208 209 213 226 231 228 211 190 197 208 234 237 271 229 257 274 272 247 254 243 212 190 191 178 184
241 239 242 247 249 255 264 271 277 280 283 269 266 261 238 230 220 208 205 206 214 214 212 208 214 194 179 195 196 214 239 243 271 251 274 270 246 260 237 213 203 201 188 191 193
237 237 237 242 247 250 258 266 270 279 291 278 267 248 236 222 224 213 206 208 211 214 214 220 213 190 196 203 202 216 215 259 288 231 245 225 218 213 223 216 213 199 207 201 194
234 233 233 234 240 242 249 256 253 269 281 261 238 217 224 209 221 210 205 206 211 209 207 213 205 198 205 214 209 218 227 269 279 240 262 230 268 144 224 228 231 219 210 204 197
237 230 228 229 232 236 243 245 234 217 241 245 227 211 207 200 202 206 201 205 207 215 215 223 208 201 215 223 211 228 229 277 261 235 243 229 250 249 205 222 247 247 237 218 210
242 238 225 222 220 224 229 225 203 223 228 231 223 217 209 204 195 200 194 200 199 198 210 218 210 204 214 204 222 218 210 209 221 199 243 199 231 252 251 247 274 263 246 232 219
240 230 238 222 208 208 209 201 217 232 214 218 202 208 205 193 203 194 195 201 203 204 217 212 216 215 215 209 217 214 214 220 219 214 195 206 241 246 236 282 272 285 257 226 222
240 221 227 232 209 194 192 200 218 227 221 216 204 190 204 199 200 197 201 204 205 196 203 210 221 212 223 224 206 211 220 222 226 231 259 245 247 270 212 343 307 298 236 215 224
226 217 225 222 222 196 197 212 221 220 218 219 227 217 205 201 200 201 201 209 208 208 203 215 220 221 217 218 215 206 208 198 209 222 235 201 249 245 264 254 274 355 51 230 243
213 205 222 223 211 196 211 216 221 226 213 208 212 218 217 200 204 206 208 206 207 207 205 210 218 213 214 206 205 210 214 214 227 228 253 266 256 237 247 258 263 266 291 303 307
210 211 218 212 199 193 204 213 214 224 214 210 219 225 216 215 209 212 214 210 217 204 208 208 218 224 214 212 214 216 229 226 230 221 232 256 274 272 251 268 246 250 274 267 286
208 205 218 215 199 200 213 218 217 222 216 213 217 217 221 216 210 217 221 222 216 207 206 203 210 221 227 235 234 232 236 237 236 251 242 250 274 202 178 290 266 263 267 262 274
202 198 206 215 222 210 211 218 218 220 221 216 221 217 213 217 216 216 217 223 219 217 212 218 215 220 228 226 228 227 236 237 239 240 250 241 263 263 276 270 271 270 272 260 258
200 196 200 205 209 211 212 215 218 212 214 213 220 217 203 201 204 212 208 217 216 214 216 219 221 224 231 237 248 246 247 244 237 241 247 249 260 268 273 266 266 270 274 271 258
198 190 202 214 211 213 210 217 211 207 206 212 220 215 205 214 186 206 209 200 213 208 213 220 221 225 234 242 244 248 249 248 243 250 252 251 259 267 277 286 276 269 263 265 262
203 196 202 205 214 211 211 212 214 206 209 215 221 220 218 213 222 231 217 199 182 213 217 222 213 215 227 238 247 245 249 240 243 248 252 251 266 279 277 287 274 261 254 259 265